Regional Weather Roundup
Issued by NWS New Orleans/Baton Rouge, LA

Home | Current Version | Previous Version | Text Only | Print | Product List | Glossary On
Versions: 1 2 3 4 5 6 7 8 9 10 11 12 13 14 15 16 17 18 19 20 21 22 23 24 25 26 27 28 29 30 31 32 33 34 35 36 37 38 39 40 41 42 43 44 45 46 47 48 49 50
000
ASUS44 KLIX 050311
RWRLIX
NEW ORLEANS REGIONAL WEATHER ROUNDUP
NATIONAL WEATHER SERVICE NEW ORLEANS LA
1000 PM CDT MON MAY 04 2015

NOTE: "FAIR" INDICATES FEW OR NO CLOUDS BELOW 12,000 FEET WITH NO
      SIGNIFICANT WEATHER AND/OR OBSTRUCTIONS TO VISIBILITY.
      SKY/WX - SKY CONDITION AND SIGNIFICANT WEATHER.
      TMP - AIR TEMPERATURE.     DP    - DEWPOINT TEMPERATURE.
      RH  - RELATIVE HUMIDITY.   PRES  - PRESSURE.
      HI  - HEAT INDEX.          WCI   - WIND CHILL INDEX.

*  THESE STATIONS ARE NOT NWS OR FAA STATIONS AND ARE NOT UNDER
   NWS QUALITY CONTROL.

LAZ038-040-048-061>063-065>067-069-050400-
SOUTHEAST LOUISIANA

CITY           SKY/WX    TMP DP  RH WIND       PRES   REMARKS
N.O. AUDUBON   NOT AVBL
N.O. INTL ARPT   N/A     73  61  65 SE7       30.17R
N.O. LAKEFRONT CLEAR     74  63  68 SE8       30.18R
SLIDELL        CLEAR     66  65  96 CALM      30.17R
BATON ROUGE    CLEAR     72  64  76 E7        30.15R
BOOTHVILLE     PTCLDY    70  63  78 E3        30.17R
BELLE CHASSE   MOCLDY    73  62  68 SE9       30.16R
BOGALUSA*        N/A     71  64  76 CALM      30.20R
GALLIANO*      CLEAR     75  64  67 SE5       30.16S
NEW ROADS*       N/A     72  64  75 E7        30.15R
GONZALES*        N/A     72  66  81 E6        30.14S
HAMMOND*       CLEAR     72  63  73 SE6       30.19R
HOUMA*         CLEAR     72  65  78 E12       30.15R
PORT FOURCHON* MOCLDY    75  64  69 E18G25    30.18R

$$

MSZ070-080>082-050400-
SOUTHERN MISSISSIPPI

CITY           SKY/WX    TMP DP  RH WIND       PRES   REMARKS
MCCOMB         CLEAR     68  62  81 SE3       30.19R
GULFPORT       PTCLDY    73  60  63 SE10      30.18R
BILOXI         NOT AVBL
PASCAGOULA     PTCLDY    63  61  93 CALM      30.20R

$$

COASTAL OBSERVATIONS
LAKE AND NEARSHORE STATIONS

STATION/POSITION TIME  TEMP    WIND        PRES    WAVE
                       AIR SEA DIR/SP/G            HT/PER
                 (UTC) (F)     (DEG/KT/KT) (MB)    (FT/S)
PASCAGOULA       0200   75     130/  9/ 13 1021.7
WAVELAND YACHT   0200   75 76  140/ 12/ 14 1021.5
GRAND ISLE       0200   75 77  130/  9/ 14 1020.8
SOUTHWEST PASS   0200   75 67  120/ 20/ 23 1021.2
NEW CANAL        0212   74 75  140/  3/  7 1021.7
SHELL BEACH      0200   74 76  130/ 12/ 14 1020.7

OFFSHORE STATIONS

STATION/POSITION TIME  TEMP    WIND        PRES    WAVE
                       AIR SEA DIR/SP/G            HT/PER
                 (UTC) (F)     (DEG/KT/KT) (MB)    (FT/S)
64 S DAUPHIN ISL 0250   74 75  110/ 17/ 21 1021.9    6/ 6

$$



USA.gov is the U.S. government's official web portal to all federal, state and local government web resources and services.